Change the Weather History Date:

Thursday, April 11, 2013

  Actual Average (KJLN) Record (KJLN)
Temperature  
Mean Temperature 39 °F 57 °F  
Max Temperature 46 °F 69 °F 86 °F (1972)
Min Temperature 32 °F 45 °F 26 °F (1989)
Degree Days  
Heating Degree Days 26 9  
Month to date heating degree days 115  
Since 1 July heating degree days 3877  
Cooling Degree Days 0 1  
Month to date cooling degree days 11  
Year to date cooling degree days 21  
Moisture  
Dew Point 32 °F    
Average Humidity 82    
Maximum Humidity 100    
Minimum Humidity 57    
Precipitation  
Precipitation 0.00 in 0.14 in 3.26 in (1994)
Month to date precipitation 1.38  
Year to date precipitation 9.15  
Sea Level Pressure  
Sea Level Pressure 29.80 in    
Wind  
Wind Speed 12 mph (West)    
Max Wind Speed 17 mph    
Max Gust Speed 28 mph    
Visibility 9 miles    
Events Snow    
T = Trace of Precipitation, MM = Missing Value Source: NWS Daily Summary

Daily Weather History Graph

Daily Weather History Graph

Search for Another Location

Airport or City:

Trip Planner

Search our weather history database for the weather conditions in past years. The results will help you decide how hot, cold, wet, or windy it might be!

Date:

Astronomy

Apr. 11, 2013 Rise Set
Actual Time 6:47 AM CDT 7:47 PM CDT
Civil Twilight 6:20 AM CDT 8:14 PM CDT
Nautical Twilight 5:49 AM CDT 8:45 PM CDT
Astronomical Twilight 5:16 AM CDT 9:18 PM CDT
Moon 7:21 AM CDT (4/11) 9:19 PM CDT (4/11)
Length of Visible Light 13h 53m
Length of Day
13h 00m
New Moon, 2% of the Moon is Illuminated
Apr 11
New Moon
Apr 18
First Quarter
Apr 25
Full
May 2
Last Quarter
May 9
New

Hourly Weather History & Observations

Time (CDT) Temp. Windchill Dew Point Humidity Pressure Visibility Wind Dir Wind Speed Gust Speed Precip Events Conditions
12:15 AM 35.6 °F 27.1 °F 35.6 °F 100% 29.87 in 4.0 mi West 12.7 mph 16.1 mph N/A   Overcast
12:35 AM 33.8 °F 25.3 °F 33.8 °F 100% 29.84 in 4.0 mi West 11.5 mph - N/A   Overcast
12:55 AM 33.8 °F 23.5 °F 33.8 °F 100% 29.85 in 4.0 mi West 16.1 mph 19.6 mph N/A   Overcast
1:15 AM 33.8 °F 23.9 °F 33.8 °F 100% 29.86 in 2.5 mi West 15.0 mph - N/A   Overcast
1:35 AM 33.8 °F 24.8 °F 33.8 °F 100% 29.86 in 2.5 mi West 12.7 mph - N/A   Overcast
1:55 AM 33.8 °F 24.8 °F 32.0 °F 93% 29.83 in 3.0 mi West 12.7 mph - N/A   Overcast
2:15 AM 33.8 °F 24.8 °F 32.0 °F 93% 29.83 in 7.0 mi West 12.7 mph - N/A   Overcast
2:35 AM 33.8 °F 26.4 °F 32.0 °F 93% 29.82 in 7.0 mi West 9.2 mph - N/A   Overcast
2:55 AM 32.0 °F 24.8 °F 32.0 °F 100% 29.83 in 10.0 mi West 8.1 mph - N/A   Overcast
3:15 AM 32.0 °F 23.6 °F 32.0 °F 100% 29.82 in 5.0 mi West 10.4 mph - N/A   Overcast
3:35 AM 32.0 °F 24.2 °F 32.0 °F 100% 29.82 in 2.5 mi West 9.2 mph - N/A   Overcast
3:55 AM 32.0 °F 23.6 °F 32.0 °F 100% 29.80 in 10.0 mi WNW 10.4 mph - N/A   Overcast
4:15 AM 32.0 °F 23.0 °F 32.0 °F 100% 29.81 in 7.0 mi WSW 11.5 mph - N/A   Overcast
4:35 AM 32.0 °F 23.0 °F 32.0 °F 100% 29.84 in 10.0 mi WSW 11.5 mph 18.4 mph N/A   Overcast
5:15 AM 32.0 °F 22.1 °F 32.0 °F 100% 29.81 in 10.0 mi West 13.8 mph - N/A   Overcast
5:35 AM 32.0 °F 24.2 °F 32.0 °F 100% 29.81 in 7.0 mi West 9.2 mph - N/A Snow Light Snow
5:55 AM 32.0 °F 24.2 °F 32.0 °F 100% 29.81 in 10.0 mi West 9.2 mph - N/A   Overcast
6:15 AM 32.0 °F 24.2 °F 32.0 °F 100% 29.81 in 10.0 mi West 9.2 mph - N/A   Overcast
6:35 AM 32.0 °F 24.2 °F 32.0 °F 100% 29.84 in 5.0 mi WSW 9.2 mph - N/A   Overcast
6:55 AM 32.0 °F 23.6 °F 32.0 °F 100% 29.81 in 10.0 mi West 10.4 mph - N/A   Overcast
7:15 AM 32.0 °F 23.6 °F 32.0 °F 100% 29.82 in 10.0 mi West 10.4 mph - N/A   Overcast
7:35 AM 32.0 °F 23.0 °F 32.0 °F 100% 29.79 in 10.0 mi West 11.5 mph - N/A   Overcast
7:55 AM 32.0 °F 23.0 °F 32.0 °F 100% 29.79 in 10.0 mi West 11.5 mph - N/A   Overcast
8:15 AM 33.8 °F 23.5 °F 32.0 °F 93% 29.81 in 10.0 mi West 16.1 mph 21.9 mph N/A   Overcast
8:35 AM 33.8 °F 23.9 °F 32.0 °F 93% 29.81 in 10.0 mi West 15.0 mph 19.6 mph N/A   Overcast
8:55 AM 32.0 °F 21.2 °F 32.0 °F 100% 29.81 in 10.0 mi WSW 16.1 mph - N/A   Overcast
9:15 AM 33.8 °F 24.8 °F 32.0 °F 93% 29.81 in 10.0 mi West 12.7 mph - N/A   Overcast
9:35 AM 33.8 °F 25.8 °F 32.0 °F 93% 29.81 in 10.0 mi West 10.4 mph - N/A   Overcast
9:55 AM 33.8 °F 24.3 °F 32.0 °F 93% 29.80 in 10.0 mi West 13.8 mph - N/A   Overcast
10:15 AM 33.8 °F 24.8 °F 32.0 °F 93% 29.80 in 10.0 mi West 12.7 mph 16.1 mph N/A   Overcast
10:35 AM 33.8 °F 24.3 °F 32.0 °F 93% 29.82 in 10.0 mi WSW 13.8 mph 21.9 mph N/A   Overcast
10:55 AM 33.8 °F 24.8 °F 32.0 °F 93% 29.82 in 10.0 mi WSW 12.7 mph - N/A   Overcast
11:15 AM 33.8 °F 25.3 °F 30.2 °F 87% 29.83 in 10.0 mi WSW 11.5 mph - N/A   Overcast
11:35 AM 33.8 °F 24.3 °F 30.2 °F 87% 29.83 in 10.0 mi West 13.8 mph - N/A   Overcast
11:55 AM 33.8 °F 23.9 °F 30.2 °F 87% 29.83 in 10.0 mi West 15.0 mph 18.4 mph N/A   Overcast
12:15 PM 37.4 °F 28.9 °F 32.0 °F 81% 29.82 in 10.0 mi WSW 13.8 mph - N/A   Overcast
12:35 PM 37.4 °F 28.9 °F 30.2 °F 75% 29.81 in 10.0 mi West 13.8 mph 17.3 mph N/A   Overcast
12:55 PM 39.2 °F 31.6 °F 32.0 °F 75% 29.81 in 10.0 mi WSW 12.7 mph 17.3 mph N/A   Mostly Cloudy
1:15 PM 41.0 °F 32.8 °F 32.0 °F 70% 29.80 in 10.0 mi West 16.1 mph 20.7 mph N/A   Mostly Cloudy
1:35 PM 41.0 °F 33.1 °F 32.0 °F 70% 29.79 in 10.0 mi WSW 15.0 mph 20.7 mph N/A   Mostly Cloudy
1:55 PM 42.8 °F 34.8 °F 32.0 °F 66% 29.79 in 10.0 mi West 17.3 mph 20.7 mph N/A   Mostly Cloudy
2:15 PM 42.8 °F 36.6 °F 32.0 °F 66% 29.78 in 10.0 mi West 11.5 mph 20.7 mph N/A   Mostly Cloudy
2:35 PM 42.8 °F 35.4 °F 32.0 °F 66% 29.77 in 10.0 mi WSW 15.0 mph 25.3 mph N/A   Mostly Cloudy
2:55 PM 44.6 °F 37.8 °F 32.0 °F 61% 29.77 in 10.0 mi West 15.0 mph 23.0 mph N/A   Scattered Clouds
3:15 PM 44.6 °F 37.4 °F 32.0 °F 61% 29.76 in 10.0 mi West 16.1 mph 21.9 mph N/A   Scattered Clouds
3:35 PM 44.6 °F 37.4 °F 32.0 °F 61% 29.76 in 10.0 mi WSW 16.1 mph 21.9 mph N/A   Mostly Cloudy
3:55 PM 46.4 °F 39.8 °F 32.0 °F 57% 29.76 in 10.0 mi WSW 16.1 mph 19.6 mph N/A   Mostly Cloudy
4:15 PM 44.6 °F 37.4 °F 32.0 °F 61% 29.74 in 10.0 mi West 16.1 mph - N/A   Mostly Cloudy
4:35 PM 46.4 °F 40.7 °F 32.0 °F 57% 29.74 in 10.0 mi West 12.7 mph 21.9 mph N/A   Scattered Clouds
4:55 PM 46.4 °F 40.4 °F 32.0 °F 57% 29.74 in 10.0 mi West 13.8 mph 27.6 mph N/A   Scattered Clouds
5:15 PM 46.4 °F 39.8 °F 32.0 °F 57% 29.74 in 10.0 mi West 16.1 mph 23.0 mph N/A   Scattered Clouds
5:35 PM 46.4 °F 40.1 °F 32.0 °F 57% 29.74 in 10.0 mi West 15.0 mph 23.0 mph N/A   Scattered Clouds
5:55 PM 46.4 °F 39.5 °F 32.0 °F 57% 29.75 in 10.0 mi West 17.3 mph - N/A   Mostly Cloudy
6:15 PM 46.4 °F 39.8 °F 32.0 °F 57% 29.75 in 10.0 mi West 16.1 mph 20.7 mph N/A   Mostly Cloudy
6:35 PM 46.4 °F 40.4 °F 32.0 °F 57% 29.75 in 10.0 mi WNW 13.8 mph - N/A   Scattered Clouds
6:55 PM 44.6 °F 38.8 °F 30.2 °F 57% 29.76 in 10.0 mi WNW 11.5 mph - N/A   Scattered Clouds
7:15 PM 44.6 °F 40.2 °F 32.0 °F 61% 29.76 in 10.0 mi West 8.1 mph - N/A   Mostly Cloudy
7:35 PM 42.8 °F 38.6 °F 32.0 °F 66% 29.77 in 10.0 mi West 6.9 mph - N/A   Mostly Cloudy
7:55 PM 42.8 °F 37.5 °F 32.0 °F 66% 29.78 in 10.0 mi West 9.2 mph - N/A   Overcast
8:15 PM 42.8 °F 38.6 °F 32.0 °F 66% 29.78 in 10.0 mi West 6.9 mph - N/A   Mostly Cloudy
8:35 PM 41.0 °F 37.1 °F 32.0 °F 70% 29.79 in 10.0 mi West 5.8 mph - N/A   Scattered Clouds
8:55 PM 41.0 °F 37.1 °F 32.0 °F 70% 29.79 in 10.0 mi West 5.8 mph - N/A   Clear
9:15 PM 41.0 °F 37.1 °F 32.0 °F 70% 29.80 in 10.0 mi WNW 5.8 mph - N/A   Clear
9:35 PM 41.0 °F 39.0 °F 32.0 °F 70% 29.79 in 10.0 mi WSW 3.5 mph - N/A   Clear
9:55 PM 37.4 °F 34.9 °F 32.0 °F 81% 29.79 in 10.0 mi South 3.5 mph - N/A   Clear
10:15 PM 37.4 °F 34.9 °F 30.2 °F 75% 29.79 in 10.0 mi South 3.5 mph - N/A   Clear
10:35 PM 37.4 °F 33.8 °F 32.0 °F 81% 29.80 in 10.0 mi SSW 4.6 mph - N/A   Clear
10:55 PM 37.4 °F 33.8 °F 32.0 °F 81% 29.79 in 10.0 mi SSW 4.6 mph - N/A   Clear
11:15 PM 37.4 °F 33.8 °F 32.0 °F 81% 29.80 in 10.0 mi SSW 4.6 mph - N/A   Clear
11:35 PM 35.6 °F 31.7 °F 32.0 °F 87% 29.79 in 10.0 mi SW 4.6 mph - N/A   Clear
11:55 PM 35.6 °F 31.7 °F 32.0 °F 87% 29.79 in 10.0 mi SW 4.6 mph - N/A   Clear